| time (UTC) | temp F | wind direction | speed knots | gust knots | rain 1hr in | rain 24hr in | rain mn in | humidity % | barometer mb |
| 20260505223516 | 80 | 270 | 5.2 | 10.4 | 0.00 | 0.03 | 0.03 | 37 | 1005.9 |
| 20260505222516 | 80 | 270 | 6.1 | 11.3 | 0.00 | 0.03 | 0.03 | 37 | 1005.7 |
| 20260505221516 | 80 | 270 | 7.8 | 13.9 | 0.00 | 0.03 | 0.03 | 37 | 1005.6 |
| 20260505220516 | 80 | 270 | 6.1 | 10.4 | 0.00 | 0.03 | 0.03 | 38 | 1005.7 |
| 20260505215536 | 80 | 270 | 7.0 | 13.9 | 0.00 | 0.03 | 0.03 | 37 | 1005.7 |
| 20260505214516 | 80 | 270 | 8.7 | 19.1 | 0.00 | 0.03 | 0.03 | 37 | 1005.8 |
| 20260505213516 | 80 | 225 | 9.6 | 16.5 | 0.00 | 0.03 | 0.03 | 37 | 1005.8 |
| 20260505212516 | 80 | 270 | 8.7 | 15.6 | 0.00 | 0.03 | 0.03 | 37 | 1005.8 |
| 20260505211516 | 81 | 270 | 8.7 | 14.8 | 0.00 | 0.03 | 0.03 | 36 | 1005.8 |
| 20260505210516 | 81 | 270 | 9.6 | 20.9 | 0.00 | 0.03 | 0.03 | 36 | 1005.6 |
| 20260505205516 | 81 | 225 | 7.8 | 19.1 | 0.00 | 0.03 | 0.03 | 37 | 1005.7 |
| 20260505204516 | 80 | 225 | 7.0 | 12.2 | 0.00 | 0.03 | 0.03 | 36 | 1005.6 |
| 20260505203516 | 80 | 270 | 7.8 | 13.9 | 0.00 | 0.03 | 0.03 | 37 | 1005.6 |
| 20260505202516 | 81 | 225 | 7.8 | 16.5 | 0.00 | 0.03 | 0.03 | 35 | 1005.5 |
| 20260505201536 | 82 | 270 | 7.8 | 13.9 | 0.00 | 0.03 | 0.03 | 36 | 1005.8 |
| 20260505200516 | 82 | 225 | 8.7 | 16.5 | 0.00 | 0.03 | 0.03 | 35 | 1005.6 |
| 20260505195516 | 83 | 270 | 7.0 | 15.6 | 0.00 | 0.03 | 0.03 | 34 | 1005.9 |
| 20260505194516 | 82 | 225 | 7.8 | 13.0 | 0.00 | 0.03 | 0.03 | 35 | 1005.9 |
| 20260505193636 | 83 | 270 | 8.7 | 17.4 | 0.00 | 0.03 | 0.03 | 35 | 1006.0 |
| 20260505192516 | 83 | 270 | 6.1 | 11.3 | 0.00 | 0.03 | 0.03 | 34 | 1006.0 |
| 20260505191516 | 82 | 270 | 7.8 | 12.2 | 0.00 | 0.03 | 0.03 | 35 | 1006.0 |
| 20260505190516 | 83 | 270 | 9.6 | 18.2 | 0.00 | 0.03 | 0.03 | 33 | 1006.2 |
| 20260505185516 | 83 | 270 | 7.8 | 12.2 | 0.00 | 0.03 | 0.03 | 35 | 1006.2 |
| 20260505184516 | 83 | 270 | 8.7 | 13.9 | 0.00 | 0.03 | 0.03 | 33 | 1006.4 |
| 20260505183536 | 83 | 270 | 7.0 | 12.2 | 0.00 | 0.03 | 0.03 | 36 | 1006.5 |
| 20260505182516 | 83 | 270 | 8.7 | 18.2 | 0.00 | 0.03 | 0.03 | 35 | 1006.5 |
| 20260505181516 | 82 | 270 | 7.0 | 13.0 | 0.00 | 0.03 | 0.03 | 38 | 1006.8 |
| 20260505180516 | 82 | 270 | 7.0 | 11.3 | 0.00 | 0.03 | 0.03 | 39 | 1007.0 |
| 20260505175516 | 82 | 270 | 8.7 | 20.0 | 0.00 | 0.03 | 0.03 | 38 | 1007.2 |
| 20260505174516 | 82 | 270 | 7.8 | 13.9 | 0.00 | 0.03 | 0.03 | 38 | 1007.1 |
| 20260505173516 | 82 | 248 | 9.6 | 16.5 | 0.00 | 0.03 | 0.03 | 36 | 1007.2 |
| 20260505172516 | 81 | 270 | 7.8 | 17.4 | 0.00 | 0.03 | 0.03 | 41 | 1007.4 |
| 20260505171516 | 81 | 270 | 6.1 | 12.2 | 0.00 | 0.03 | 0.03 | 41 | 1007.4 |
| 20260505170516 | 80 | 270 | 6.1 | 10.4 | 0.00 | 0.03 | 0.03 | 43 | 1007.5 |
| 20260505165516 | 79 | 270 | 6.1 | 11.3 | 0.00 | 0.03 | 0.03 | 43 | 1007.7 |
| 20260505164516 | 79 | 270 | 6.1 | 12.2 | 0.00 | 0.03 | 0.03 | 44 | 1007.8 |
| 20260505163516 | 79 | 270 | 7.0 | 13.0 | 0.00 | 0.03 | 0.03 | 43 | 1008.0 |
| 20260505162536 | 80 | 270 | 7.8 | 13.9 | 0.00 | 0.03 | 0.03 | 43 | 1008.2 |
| 20260505161516 | 79 | 270 | 7.0 | 13.0 | 0.00 | 0.03 | 0.03 | 46 | 1008.2 |
| 20260505160515 | 79 | 270 | 6.1 | 10.4 | 0.00 | 0.03 | 0.03 | 47 | 1008.3 |
| 20260505152515 | 76 | 270 | 4.3 | 7.8 | 0.00 | 0.03 | 0.03 | 51 | 1008.7 |
| 20260505151515 | 76 | 270 | 4.3 | 7.0 | 0.00 | 0.03 | 0.03 | 51 | 1008.8 |
| 20260505150516 | 74 | 270 | 6.1 | 9.6 | 0.00 | 0.03 | 0.03 | 52 | 1008.9 |
| 20260505140616 | 69 | 270 | 3.5 | 7.8 | 0.00 | 0.03 | 0.03 | 64 | 1009.5 |
| 20260505124517 | 64 | 225 | 3.5 | 6.1 | 0.00 | 0.03 | 0.03 | 71 | 1009.6 |
| 20260505123517 | 63 | 203 | 1.7 | 4.3 | 0.00 | 0.03 | 0.03 | 73 | 1009.4 |
| 20260505122517 | 62 | 270 | 2.6 | 3.5 | 0.00 | 0.03 | 0.03 | 73 | 1009.4 |
| 20260505121535 | 62 | 270 | 2.6 | 4.3 | 0.00 | 0.03 | 0.03 | 74 | 1009.6 |
| 20260505120517 | 61 | 293 | 1.7 | 3.5 | 0.00 | 0.03 | 0.03 | 77 | 1009.4 |
| 20260505115517 | 60 | 225 | 2.6 | 5.2 | 0.00 | 0.03 | 0.03 | 78 | 1009.2 |
| 20260505114557 | 59 | 270 | 0.9 | 2.6 | 0.00 | 0.03 | 0.03 | 79 | 1009.2 |
| 20260505113517 | 59 | 225 | 0.9 | 4.3 | 0.00 | 0.03 | 0.03 | 80 | 1009.3 |
| 20260505112517 | 58 | 225 | 1.7 | 4.3 | 0.00 | 0.03 | 0.03 | 81 | 1009.3 |
| 20260505111517 | 57 | 293 | 1.7 | 3.5 | 0.00 | 0.03 | 0.03 | 82 | 1009.2 |
| 20260505110517 | 56 | 0.0 | 2.6 | 0.00 | 0.03 | 0.03 | 83 | 1009.2 | |
| 20260505101517 | 55 | 203 | 0.9 | 2.6 | 0.00 | 0.03 | 0.03 | 85 | 1008.7 |
| 20260505100517 | 54 | 0.0 | 1.7 | 0.00 | 0.03 | 0.03 | 85 | 1008.6 | |
| 20260505095517 | 55 | 0.0 | 1.7 | 0.03 | 0.03 | 0.03 | 85 | 1008.6 | |
| 20260505094557 | 55 | 270 | 0.9 | 2.6 | 0.03 | 0.03 | 0.03 | 85 | 1008.7 |
| 20260505093517 | 55 | 0.0 | 1.7 | 0.03 | 0.03 | 0.03 | 84 | 1008.9 | |
| 20260505092517 | 55 | 0.0 | 0.0 | 0.03 | 0.03 | 0.03 | 83 | 1009.1 | |
| 20260505091517 | 56 | 225 | 0.9 | 2.6 | 0.03 | 0.03 | 0.03 | 81 | 1009.2 |
| 20260505090517 | 57 | 225 | 0.9 | 2.6 | 0.03 | 0.03 | 0.03 | 77 | 1008.8 |
| 20260505085517 | 58 | 270 | 0.9 | 3.5 | 0.00 | 0.00 | 0.00 | 71 | 1009.3 |
| 20260505084517 | 58 | 248 | 0.9 | 1.7 | 0.00 | 0.00 | 0.00 | 70 | 1008.9 |
| 20260505083517 | 57 | 0.0 | 1.7 | 0.00 | 0.00 | 0.00 | 71 | 1008.8 | |
| 20260505082516 | 57 | 0.0 | 1.7 | 0.00 | 0.00 | 0.00 | 72 | 1008.8 | |
| 20260505081517 | 57 | 0.0 | 0.0 | 0.00 | 0.00 | 0.00 | 71 | 1008.5 | |
| 20260505080516 | 57 | 0.0 | 0.0 | 0.00 | 0.00 | 0.00 | 69 | 1008.5 | |
| 20260505075517 | 58 | 0.0 | 1.7 | 0.00 | 0.00 | 0.00 | 68 | 1008.4 | |
| 20260505074617 | 59 | 0.0 | 0.0 | 0.00 | 0.00 | 0.00 | 66 | 1008.4 | |
| 20260505073517 | 59 | 0.0 | 0.9 | 0.00 | 0.00 | 0.00 | 64 | 1008.5 | |
| 20260505072517 | 60 | 0.0 | 1.7 | 0.00 | 0.00 | 0.00 | 63 | 1008.4 | |
| 20260505071517 | 60 | 0.0 | 1.7 | 0.00 | 0.00 | 0.00 | 62 | 1008.4 | |
| 20260505070517 | 60 | 225 | 0.9 | 3.5 | 0.00 | 0.00 | 0.00 | 62 | 1008.4 |
| 20260505065516 | 60 | 225 | 1.7 | 5.2 | 0.00 | 0.00 | 0.00 | 62 | 1008.5 |
| 20260505064517 | 59 | 270 | 0.9 | 3.5 | 0.00 | 0.00 | 0.00 | 63 | 1008.5 |
| 20260505063517 | 58 | 0.0 | 1.7 | 0.00 | 0.00 | 0.00 | 65 | 1008.5 | |
| 20260505062537 | 59 | 0.0 | 0.0 | 0.00 | 0.00 | 0.00 | 63 | 1008.6 | |
| 20260505061517 | 59 | 0.0 | 0.0 | 0.00 | 0.00 | 0.00 | 61 | 1008.7 | |
| 20260505060517 | 61 | 0.0 | 0.0 | 0.00 | 0.00 | 0.00 | 59 | 1008.6 | |
| 20260505055537 | 62 | 270 | 0.9 | 1.7 | 0.00 | 0.00 | 0.00 | 56 | 1008.7 |
| 20260505054516 | 62 | 225 | 1.7 | 5.2 | 0.00 | 0.00 | 0.00 | 56 | 1008.6 |
| 20260505053516 | 62 | 270 | 1.7 | 5.2 | 0.00 | 0.00 | 0.00 | 55 | 1008.7 |
| 20260505052516 | 62 | 248 | 1.7 | 4.3 | 0.00 | 0.00 | 0.00 | 55 | 1008.7 |
| 20260505051516 | 62 | 270 | 0.9 | 2.6 | 0.00 | 0.00 | 0.00 | 54 | 1008.7 |
| 20260505050516 | 63 | 248 | 1.7 | 4.3 | 0.00 | 0.00 | 0.00 | 53 | 1008.5 |
| 20260505041516 | 64 | 270 | 2.6 | 6.1 | 0.00 | 0.00 | 0.00 | 50 | 1008.4 |
| 20260505040516 | 64 | 248 | 1.7 | 4.3 | 0.00 | 0.00 | 0.00 | 50 | 1008.2 |
| 20260505035537 | 64 | 225 | 2.6 | 6.1 | 0.00 | 0.00 | 0.00 | 49 | 1008.2 |
| 20260505034517 | 64 | 225 | 2.6 | 6.1 | 0.00 | 0.00 | 0.00 | 49 | 1008.2 |
| 20260505033517 | 65 | 270 | 2.6 | 7.0 | 0.00 | 0.00 | 0.00 | 49 | 1008.2 |
| 20260505032517 | 65 | 248 | 3.5 | 7.8 | 0.00 | 0.00 | 0.00 | 48 | 1008.3 |
| 20260505031517 | 65 | 225 | 3.5 | 7.0 | 0.00 | 0.00 | 0.00 | 48 | 1008.3 |
| 20260505030517 | 65 | 203 | 3.5 | 7.8 | 0.00 | 0.00 | 0.00 | 48 | 1008.4 |
| 20260505025537 | 64 | 225 | 3.5 | 6.1 | 0.00 | 0.00 | 0.00 | 48 | 1008.4 |
| 20260505024517 | 65 | 270 | 1.7 | 5.2 | 0.00 | 0.00 | 0.00 | 48 | 1008.5 |
| 20260505023517 | 64 | 248 | 1.7 | 3.5 | 0.00 | 0.00 | 0.00 | 48 | 1008.5 |
| 20260505022517 | 65 | 270 | 1.7 | 4.3 | 0.00 | 0.00 | 0.00 | 48 | 1008.5 |
| 20260505021517 | 65 | 248 | 1.7 | 5.2 | 0.00 | 0.00 | 0.00 | 47 | 1008.7 |
| 20260505020517 | 65 | 248 | 0.9 | 2.6 | 0.00 | 0.00 | 0.00 | 47 | 1008.7 |
| 20260505015517 | 65 | 248 | 1.7 | 4.3 | 0.00 | 0.00 | 0.00 | 47 | 1008.6 |
| 20260505014517 | 65 | 225 | 1.7 | 4.3 | 0.00 | 0.00 | 0.00 | 47 | 1008.5 |
| 20260505013516 | 65 | 270 | 1.7 | 4.3 | 0.00 | 0.00 | 0.00 | 46 | 1008.5 |
| 20260505012557 | 65 | 248 | 1.7 | 3.5 | 0.00 | 0.00 | 0.00 | 46 | 1008.4 |
| 20260505011517 | 65 | 248 | 0.9 | 4.3 | 0.00 | 0.00 | 0.00 | 46 | 1008.2 |
| 20260505010517 | 66 | 248 | 1.7 | 4.3 | 0.00 | 0.00 | 0.00 | 46 | 1008.2 |
| 20260505005557 | 66 | 203 | 1.7 | 3.5 | 0.00 | 0.00 | 0.00 | 45 | 1008.2 |
| 20260505004517 | 66 | 225 | 1.7 | 4.3 | 0.00 | 0.00 | 0.00 | 45 | 1007.9 |
| 20260505003517 | 67 | 270 | 2.6 | 7.0 | 0.00 | 0.00 | 0.00 | 44 | 1007.9 |
| 20260505002516 | 67 | 225 | 3.5 | 7.8 | 0.00 | 0.00 | 0.00 | 44 | 1007.8 |
| 20260505001516 | 67 | 203 | 1.7 | 4.3 | 0.00 | 0.00 | 0.00 | 43 | 1007.6 |
| 20260505000517 | 68 | 203 | 3.5 | 7.0 | 0.00 | 0.00 | 0.00 | 43 | 1007.6 |
| 20260504235517 | 68 | 270 | 4.3 | 8.7 | 0.00 | 0.00 | 0.00 | 42 | 1007.5 |
| 20260504234517 | 69 | 248 | 4.3 | 8.7 | 0.00 | 0.00 | 0.00 | 42 | 1007.4 |
| 20260504233517 | 69 | 203 | 4.3 | 7.8 | 0.00 | 0.00 | 0.00 | 42 | 1007.2 |
| 20260504232517 | 69 | 270 | 5.2 | 11.3 | 0.00 | 0.00 | 0.00 | 41 | 1007.1 |
| 20260504231537 | 70 | 270 | 5.2 | 9.6 | 0.00 | 0.00 | 0.00 | 41 | 1007.0 |
| 20260504230536 | 70 | 270 | 4.3 | 8.7 | 0.00 | 0.00 | 0.00 | 40 | 1006.9 |
| 20260504225516 | 71 | 248 | 5.2 | 11.3 | 0.00 | 0.00 | 0.00 | 39 | 1006.9 |
| 20260504224516 | 72 | 248 | 5.2 | 10.4 | 0.00 | 0.00 | 0.00 | 39 | 1006.8 |